Weather History for Kansas City International, MO

Change the Weather History Date:

Wednesday, May 15, 2013

  Actual Average Record
Temperature  
Mean Temperature 75 °F 64 °F  
Max Temperature 86 °F 75 °F 91 °F (1941)
Min Temperature 64 °F 54 °F 34 °F (1907)
Degree Days  
Heating Degree Days 0 3  
Month to date heating degree days 141 70  
Since 1 July heating degree days 5170 5090  
Cooling Degree Days 10 3  
Month to date cooling degree days 22 25  
Year to date cooling degree days 35 53  
Growing Degree Days 25 (Base 50)    
Moisture  
Dew Point 59 °F    
Average Humidity 67    
Maximum Humidity 87    
Minimum Humidity 47    
Precipitation  
Precipitation 0.00 in 0.16 in 3.23 in (1990)
Month to date precipitation 2.47 2.51  
Year to date precipitation 10.94 11.11  
Snow  
Snow 0.00 in 0.00 in 0.00 in ()
Month to date snowfall 0.5 0.0  
Since 1 July snowfall 31.8 18.8  
Snow Depth 0.00 in    
Sea Level Pressure  
Sea Level Pressure 29.83 in    
Wind  
Wind Speed 12 mph (SSW)    
Max Wind Speed 21 mph    
Max Gust Speed 29 mph    
Visibility 10 miles    
Events      
T = Trace of Precipitation, MM = Missing Value Source: NWS Daily Summary

Daily Weather History Graph

Daily Weather History Graph

Search for Another Location

Airport:

Trip Planner

Search our weather history database for the weather conditions in past years. The results will help you decide how hot, cold, wet, or windy it might be!

Date:

Astronomy

May. 15, 2013 Rise Set
Actual Time 6:05 AM CDT 8:25 PM CDT
Civil Twilight 5:34 AM CDT 8:56 PM CDT
Nautical Twilight 4:57 AM CDT 9:33 PM CDT
Astronomical Twilight 4:16 AM CDT 10:15 PM CDT
Moon 10:41 AM CDT (5/15) 12:13 AM CDT (5/15)
Length of Visible Light 15h 21m
Length of Day
14h 20m
Waxing Crescent, 27% of the Moon is Illuminated
May 15
Waxing Crescent
May 17
First Quarter
May 24
Full
May 31
Last Quarter
Jun 8
New

Hourly Weather History & Observations

Time (CDT) Temp. Heat Index Dew Point Humidity Pressure Visibility Wind Dir Wind Speed Gust Speed Precip Events Conditions
12:53 AM 73.0 °F - 53.1 °F 49% 29.81 in 10.0 mi SSW 18.4 mph 26.5 mph N/A   Clear
1:53 AM 71.1 °F - 54.0 °F 55% 29.82 in 10.0 mi SSW 17.3 mph - N/A   Clear
2:53 AM 71.1 °F - 53.1 °F 53% 29.81 in 10.0 mi SSW 15.0 mph 24.2 mph N/A   Clear
3:53 AM 70.0 °F - 53.1 °F 55% 29.82 in 10.0 mi SSW 15.0 mph 23.0 mph N/A   Clear
4:53 AM 68.0 °F - 53.1 °F 59% 29.83 in 10.0 mi SSW 13.8 mph - N/A   Clear
5:53 AM 66.0 °F - 53.1 °F 63% 29.84 in 10.0 mi SSW 9.2 mph - N/A   Scattered Clouds
6:53 AM 66.0 °F - 54.0 °F 65% 29.85 in 10.0 mi SSW 12.7 mph - N/A   Mostly Cloudy
7:53 AM 68.0 °F - 55.0 °F 63% 29.86 in 10.0 mi SSW 13.8 mph - N/A   Scattered Clouds
8:53 AM 72.0 °F - 57.0 °F 59% 29.88 in 10.0 mi SW 13.8 mph 18.4 mph N/A   Partly Cloudy
9:53 AM 73.9 °F - 57.9 °F 57% 29.87 in 10.0 mi SSW 13.8 mph - N/A   Scattered Clouds
10:53 AM 77.0 °F - 57.9 °F 52% 29.86 in 10.0 mi SW 16.1 mph 21.9 mph N/A   Mostly Cloudy
11:53 AM 80.1 °F 81.1 °F 61.0 °F 52% 29.86 in 10.0 mi SSW 9.2 mph - N/A   Mostly Cloudy
12:53 PM 82.0 °F 82.4 °F 60.1 °F 47% 29.85 in 10.0 mi WSW 8.1 mph - N/A   Scattered Clouds
1:53 PM 82.9 °F 83.7 °F 62.1 °F 49% 29.83 in 9.0 mi SSW 6.9 mph - N/A   Scattered Clouds
2:53 PM 84.9 °F 85.9 °F 63.0 °F 48% 29.81 in 10.0 mi SSW 9.2 mph - N/A   Mostly Cloudy
3:53 PM 84.0 °F 84.5 °F 62.1 °F 47% 29.80 in 8.0 mi South 12.7 mph - N/A   Scattered Clouds
4:53 PM 82.0 °F 83.4 °F 64.0 °F 54% 29.79 in 10.0 mi South 12.7 mph - N/A   Scattered Clouds
5:53 PM 82.0 °F 83.1 °F 63.0 °F 52% 29.78 in 9.0 mi SSW 17.3 mph 23.0 mph N/A   Mostly Cloudy
6:53 PM 78.1 °F - 63.0 °F 60% 29.78 in 10.0 mi SSW 12.7 mph 21.9 mph N/A   Mostly Cloudy
7:53 PM 75.0 °F - 64.0 °F 69% 29.80 in 10.0 mi SSW 9.2 mph - N/A   Mostly Cloudy
8:53 PM 75.0 °F - 62.1 °F 64% 29.81 in 10.0 mi SW 10.4 mph - N/A   Mostly Cloudy
9:53 PM 66.9 °F - 62.1 °F 84% 29.85 in 10.0 mi SSW 8.1 mph - N/A   Partly Cloudy
10:53 PM 70.0 °F - 64.0 °F 81% 29.86 in 10.0 mi South 13.8 mph - N/A   Scattered Clouds
11:53 PM 66.9 °F - 63.0 °F 87% 29.85 in 9.0 mi South 9.2 mph - N/A   Mostly Cloudy